This demonstration page uses our WeatherBlox Daily Observations layout. Learn more.

Left ArrowRight Arrow

41.55636, -103.73856

Hourly Observations for December 24, 2021

Temp ( °F °C ) Dew Point ( °F °C ) Humidity (%) Winds ( mph kmh ) Pressure ( in mb ) Visibility ( mi km ) Precip ( " mm )
12:58 am 00:58 Mostly Cloudy 47 8.2 29 -1.8 50 50 W 13 20 29.33 993 10 16 0.00 0.00
1:58 am 01:58 Partly Cloudy 40 4.6 28 -2.1 62 62 NNW 9 15 29.35 994 10 16 0.00 0.00
2:58 am 02:58 Mostly Cloudy 43 6.2 33 0.6 68 68 WNW 20 31 29.41 996 10 16 0.00 0.00
3:58 am 03:58 Mostly Cloudy 46 7.5 26 -3.2 47 47 W 29 46 29.38 995 10 16 0.00 0.00
4:58 am 04:58 Partly Cloudy 42 5.7 26 -3.6 52 52 W 15 24 29.41 996 10 16 0.00 0.00
5:58 am 05:58 Mostly Cloudy 44 6.6 23 -5 44 44 NW 17 28 29.44 997 10 16 0.00 0.00
6:58 am 06:58 Mostly Cloudy 45 7.4 23 -4.8 42 42 W 21 33 29.44 997 10 16 0.00 0.00
7:58 am 07:58 Mostly Cloudy 45 7.4 24 -4.5 43 43 W 22 35 29.44 997 10 16 0.00 0.00
8:58 am 08:58 Mostly Cloudy 46 7.5 23 -4.8 42 42 W 18 30 29.43 997 10 16 0.00 0.00
9:58 am 09:58 Mostly Cloudy 46 7.9 23 -5.2 39 39 WNW 21 33 29.47 998 10 16 0.00 0.00
10:58 am 10:58 Mostly Cloudy 47 8.2 22 -5.7 37 37 W 16 26 29.45 997 10 16 0.00 0.00
11:58 am 11:58 Mostly Cloudy 46 8 22 -5.5 38 38 NW 14 22 29.44 997 10 16 0.00 0.00
12:58 pm 12:58 Mostly Cloudy 48 8.7 20 -6.4 34 34 NW 13 20 29.42 996 10 16 0.00 0.00
1:58 pm 13:58 Mostly Cloudy 47 8.4 22 -5.6 37 37 NW 8 13 29.46 998 10 16 0.00 0.00
2:58 pm 14:58 Partly Cloudy 48 8.7 21 -6 35 35 W 6 9 29.44 997 10 16 0.00 0.00
3:58 pm 15:58 Mostly Sunny 43 6.1 22 -5.4 44 44 ESE 13 20 29.48 998 10 16 0.00 0.00
4:58 pm 16:58 Cloudy 42 5.6 20 -6.4 42 42 SSE 8 13 29.51 999 10 16 0.00 0.00
5:58 pm 17:58 Mostly Cloudy 40 4.3 20 -6.7 45 45 SSW 5 7 29.53 1000 10 16 0.00 0.00
6:58 pm 18:58 Mostly Cloudy 39 4 24 -4.7 53 53 SSW 8 13 29.52 1000 10 16 0.00 0.00
7:58 pm 19:58 Partly Cloudy 34 1.1 23 -5.1 64 64 SSW 14 22 29.54 1000 10 16 0.00 0.00
8:58 pm 20:58 Clear 36 2.3 25 -4.1 63 63 SSW 18 30 29.53 1000 10 16 0.00 0.00
9:58 pm 21:58 Clear 35 1.4 28 -2.3 77 77 SSW 20 31 29.53 1000 10 16 0.00 0.00
10:58 pm 22:58 Mostly Clear 32 0 25 -3.9 75 75 SSW 14 22 29.52 1000 10 16 0.00 0.00
11:58 pm 23:58 Clear 35 1.9 26 -3.3 69 69 S 14 22 29.51 999 10 16 0.00 0.00

Powered by AerisWeather